Regional Weather Roundup
Issued by NWS

Home | Current Version | Previous Version | Graphics & Text | Print | Product List | Glossary On
Versions: 1 2 3 4 5 6 7 8 9 10 11 12 13 14 15 16 17 18 19 20 21 22 23 24 25 26 27 28 29 30 31 32 33 34 35 36 37 38 39 40 41 42 43 44 45 46 47 48 49 50
539
ASUS45 KBOU 141907
RWRCO

WEATHER ROUNDUP FOR COLORADO
NATIONAL WEATHER SERVICE DENVER/BOULDER CO
1200 PM MST SUN FEB 14 2016

NOTE: "FAIR" INDICATES FEW OR NO CLOUDS BELOW 12000 FEET WITH NO
SIGNIFICANT WEATHER AND/OR OBSTRUCTIONS TO VISIBILITY.

COZ001>005-013-030-031-142000-
...NORTHWEST COLORADO...

CITY           SKY/WX    TMP DP  RH WIND       PRES   REMARKS
CRAIG          LGT SNOW  27  22  81 N5        30.13F WCI  22
HAYDEN         CLOUDY    27  21  80 SE3       30.13F VSB 1
MEEKER         CLOUDY    30  21  69 S3        30.13R
MOUNT WERNER   NOT AVBL
STEAMBOAT SPGS CLOUDY    26  23  91 E3        30.13F
WALDEN         CLOUDY    30  21  69 SW14G22   30.05F WCI  20
$$

COZ006>008-011-142000-
...WEST CENTRAL VALLEYS...

CITY           SKY/WX    TMP DP  RH WIND       PRES   REMARKS
GRAND JUNCTION CLOUDY    34  30  85 NW5       30.15S WCI  30
MONTROSE       CLOUDY    38  26  62 NW5       30.15F
EAGLE          CLOUDY    32  21  64 CALM      30.12S
RIFLE          CLOUDY    32  23  69 CALM      30.15F
DELTA          PTSUNNY   41  29  61 E3        30.14F
NUCLA          FAIR      36  23  60 CALM      30.19S
$$

COZ017>023-064>068-142000-
...SOUTHWEST COLORADO...

CITY           SKY/WX    TMP DP  RH WIND       PRES   REMARKS
DURANGO        FAIR      37  21  52 NE5       30.12F
CORTEZ         FAIR      43  23  45 S3        30.15S
PAGOSA SPRINGS FAIR      40  15  34 CALM      30.11F
TELLURIDE      NOT AVBL
WOLF CREEK PAS FAIR      30  -2  24 SW14G23   30.18F WCI  20
$$

COZ009-010-012-014-032>034-037-058>063-142000-
...CENTRAL COLORADO...

CITY           SKY/WX    TMP DP  RH WIND       PRES   REMARKS
ASPEN          CLOUDY    38  17  42 N5        30.09S
BUENA VISTA    CLOUDY    43  11  27 W28G43    29.98F
COPPER MTN     SNOW      23  14  68 W17G35    30.10R VSB 1/2 WCI   9
BERTHOUD PASS  HVY SNOW  12   1  62 NW25G36   30.07F VSB<1/4 WCI  -8
COTTONWOOD PAS FAIR      37   5  25 W36G56    29.97F
GUNNISON       CLOUDY    14   0  52 E5        30.19F WCI   6
KREMMLING      CLOUDY    32  25  74 N9        30.12F WCI  24
LEADVILLE      CLOUDY    28  12  51 NW14G22   30.09R WCI  17
SALIDA         NOT AVBL
SUNLIGHT       CLOUDY    30  16  55 S5        30.16S WCI  25
WILKERSON PASS FAIR      30  10  43 W21G32    29.99F WCI  17
$$

COZ069>075-142000-
...SAN LUIS VALLEY/SANGRE DE CRISTO MOUNTAINS...

CITY           SKY/WX    TMP DP  RH WIND       PRES   REMARKS
ALAMOSA        FAIR      45  10  24 CALM      30.04F
LA VETA PASS   FAIR      37  10  32 S20G36    29.98F
SAGUACHE       FAIR      45  14  29 NW39G49   30.00F
$$

COZ035-036-038>040-142000-
...NORTHERN COLORADO FRONT RANGE...

CITY           SKY/WX    TMP DP  RH WIND       PRES   REMARKS
DENVER INTL AP PTSUNNY   49  20  31 N8        29.89F
DMNS CITY PARK   N/A     51  17  26 NE14      29.90S
AURORA         PTSUNNY   52  20  28 NE12      29.91R
FRONT RANGE AP PTSUNNY   46  23  39 N10G18    29.90S
ERIE MUNI ARPT FAIR      48  21  34 SE5       29.89F
BOULDER MUN AP FAIR      52  18  25 SW8       29.87S
CENTENNIAL     PTSUNNY   51  19  28 N15       29.90R
BROOMFIELD     PTSUNNY   50  18  27 W9        29.90R
FORT COLLINS   FAIR      41  27  56 S9        29.88F
LONGMONT       FAIR      51  20  29 SW8       29.91S
$$

COZ041-046-047-076>085-087-088-142000-
...PIKES PEAK/PALMER DIVIDE AND SOUTHERN FOOTHILLS...

CITY           SKY/WX    TMP DP  RH WIND       PRES   REMARKS
COLO. SPRINGS  PTSUNNY   39  23  52 CALM      29.92F
A. F. ACADEMY  FAIR      40  23  50 SW7       29.90F
SCHRIEVER AFB  FAIR      39  21  47 SE8       29.91F
ELLICOTT       FAIR     N/A N/A N/A SW7       29.89F
FALCON         FAIR      41  21  45 CALM      29.93R
FORT CARSON    FAIR      40  25  55 VRB7      29.89F
LIMON          FAIR      42  27  55 S8        29.91F
MONUMENT HILL  FAIR      41  23  48 N16       29.93R
TRINIDAD       FAIR      53  20  27 CALM      29.88F
$$

COZ042>045-048>051-090-091-142000-
...NORTHEAST COLORADO...

CITY           SKY/WX    TMP DP  RH WIND       PRES   REMARKS
GREELEY ARPT   FAIR      39  28  65 S5        29.88F
AKRON          FAIR      43  23  45 S9        29.88F
BURLINGTON     FAIR      44  24  45 SW15      29.93F
WRAY           PTSUNNY   52  22  30 SW14      29.90F
STERLING       FAIR      46  25  42 S13       29.86F
HOLYOKE        FAIR      45  30  57 SW10      29.89F
FORT MORGAN    FAIR      42  27  53 S8        29.88F
$$

COZ086-089-092>099-142000-
...SOUTHEAST COLORADO...

CITY           SKY/WX    TMP DP  RH WIND       PRES   REMARKS
PUEBLO         FAIR      48  25  40 NE9       29.89F
LA JUNTA       FAIR      49  22  34 E12       29.91F
LAMAR          FAIR      50  22  33 S8        29.94F
SPRINGFIELD      N/A     47  19  33 S10G22    29.94F
$$




USA.gov is the U.S. government's official web portal to all federal, state and local government web resources and services.